Zurück zum Katalog

COSMOS 252 DEB

AktivLEO
NORAD 19309·DEBRIS·🇷🇺 Russia

Gestartet Nov 1, 1968 von Baikonur Cosmodrome

Loading…

Nächste Überflüge (nächste 24 Stunden)

TLE

AktuellSource: Space-Track

Epoche: Sep 14, 2026, 02:43 UTC

1 19309U 68097ES  26257.11380635 -.00000049  00000-0  25846-4 0  9994
2 19309  62.3802  93.9333 0886223 287.2193  63.3751 13.04586187682819

Verfolge COSMOS 252 DEB in Echtzeit mit AllMySat

Download on the App Store